| time (UTC) | temp F | wind direction | speed knots | gust knots | rain 1hr in | rain 24hr in | rain mn in | humidity % | barometer mb |
| 20260510045005 | 75 | 204 | 6.1 | 14.8 | 0.00 | 0.00 | 0.00 | 21 | 1019.9 |
| 20260510044004 | 75 | 188 | 3.5 | 9.6 | 0.00 | 0.00 | 0.00 | 21 | 1019.9 |
| 20260510043004 | 74 | 162 | 7.0 | 11.3 | 0.00 | 0.00 | 0.00 | 20 | 1020.1 |
| 20260510042005 | 73 | 175 | 5.2 | 12.2 | 0.00 | 0.00 | 0.00 | 22 | 1020.2 |
| 20260510041004 | 73 | 187 | 7.0 | 14.8 | 0.00 | 0.00 | 0.00 | 22 | 1020.4 |
| 20260510040004 | 73 | 164 | 6.1 | 13.0 | 0.00 | 0.00 | 0.00 | 26 | 1020.7 |
| 20260510035004 | 73 | 173 | 4.3 | 12.2 | 0.00 | 0.00 | 0.00 | 27 | 1020.8 |
| 20260510034004 | 73 | 181 | 2.6 | 10.4 | 0.00 | 0.00 | 0.00 | 28 | 1020.9 |
| 20260510033004 | 73 | 193 | 4.3 | 10.4 | 0.00 | 0.00 | 0.00 | 28 | 1021.1 |
| 20260510032004 | 73 | 191 | 3.5 | 11.3 | 0.00 | 0.00 | 0.00 | 28 | 1021.2 |
| 20260510031004 | 73 | 196 | 7.0 | 12.2 | 0.00 | 0.00 | 0.00 | 29 | 1021.3 |
| 20260510030005 | 72 | 198 | 4.3 | 13.0 | 0.00 | 0.00 | 0.00 | 31 | 1021.4 |
| 20260510025004 | 71 | 186 | 4.3 | 11.3 | 0.00 | 0.00 | 0.00 | 32 | 1021.6 |
| 20260510024004 | 70 | 173 | 7.0 | 13.0 | 0.00 | 0.00 | 0.00 | 33 | 1021.7 |
| 20260510023004 | 70 | 190 | 8.7 | 15.6 | 0.00 | 0.00 | 0.00 | 33 | 1021.7 |
| 20260510022004 | 70 | 205 | 5.2 | 16.5 | 0.00 | 0.00 | 0.00 | 35 | 1021.8 |
| 20260510021004 | 69 | 225 | 7.0 | 13.0 | 0.00 | 0.00 | 0.00 | 37 | 1021.9 |
| 20260510020004 | 69 | 218 | 6.1 | 9.6 | 0.00 | 0.00 | 0.00 | 38 | 1022.2 |
| 20260510015004 | 68 | 206 | 3.5 | 10.4 | 0.00 | 0.00 | 0.00 | 38 | 1022.3 |
| 20260510014004 | 66 | 211 | 5.2 | 10.4 | 0.00 | 0.00 | 0.00 | 41 | 1022.4 |
| 20260510013005 | 71 | 213 | 3.5 | 12.2 | 0.00 | 0.00 | 0.00 | 42 | 1022.3 |
| 20260510012004 | 74 | 213 | 4.3 | 9.6 | 0.00 | 0.00 | 0.00 | 42 | 1022.4 |
| 20260510011004 | 71 | 230 | 3.5 | 8.7 | 0.00 | 0.00 | 0.00 | 44 | 1022.4 |
| 20260510010004 | 64 | 210 | 5.2 | 9.6 | 0.00 | 0.00 | 0.00 | 45 | 1022.4 |
| 20260510005004 | 63 | 206 | 4.3 | 9.6 | 0.00 | 0.00 | 0.00 | 46 | 1022.5 |
| 20260510004004 | 62 | 228 | 3.5 | 9.6 | 0.00 | 0.00 | 0.00 | 49 | 1022.2 |
| 20260510003005 | 61 | 209 | 3.5 | 10.4 | 0.00 | 0.00 | 0.00 | 50 | 1022.3 |
| 20260510002004 | 61 | 229 | 6.1 | 8.7 | 0.00 | 0.00 | 0.00 | 50 | 1022.1 |
| 20260510001004 | 60 | 224 | 4.3 | 9.6 | 0.00 | 0.00 | 0.00 | 52 | 1022.0 |
| 20260510000004 | 59 | 227 | 5.2 | 8.7 | 0.00 | 0.00 | 0.00 | 54 | 1022.0 |
| 20260509235004 | 58 | 235 | 3.5 | 8.7 | 0.00 | 0.00 | 0.00 | 55 | 1022.3 |
| 20260509234004 | 56 | 221 | 3.5 | 7.0 | 0.00 | 0.00 | 0.00 | 58 | 1022.2 |
| 20260509233004 | 55 | 229 | 4.3 | 7.0 | 0.00 | 0.00 | 0.00 | 60 | 1022.3 |
| 20260509232004 | 54 | 214 | 3.5 | 7.0 | 0.00 | 0.00 | 0.00 | 62 | 1022.3 |
| 20260509231004 | 54 | 222 | 2.6 | 6.1 | 0.00 | 0.00 | 0.00 | 62 | 1022.0 |
| 20260509230004 | 54 | 232 | 1.7 | 6.1 | 0.00 | 0.00 | 0.00 | 62 | 1021.9 |
| 20260509225004 | 54 | 237 | 3.5 | 6.1 | 0.00 | 0.00 | 0.00 | 62 | 1021.9 |
| 20260509224004 | 54 | 235 | 1.7 | 5.2 | 0.00 | 0.00 | 0.00 | 63 | 1021.9 |
| 20260509223004 | 54 | 236 | 2.6 | 3.5 | 0.00 | 0.00 | 0.00 | 63 | 1022.0 |
| 20260509222004 | 54 | 236 | 1.7 | 3.5 | 0.00 | 0.00 | 0.00 | 62 | 1021.9 |
| 20260509221004 | 54 | 250 | 1.7 | 4.3 | 0.00 | 0.00 | 0.00 | 61 | 1021.8 |
| 20260509220004 | 54 | 231 | 1.7 | 5.2 | 0.00 | 0.00 | 0.00 | 61 | 1021.6 |
| 20260509215004 | 54 | 251 | 1.7 | 4.3 | 0.00 | 0.00 | 0.00 | 61 | 1021.5 |
| 20260509214004 | 54 | 251 | 1.7 | 3.5 | 0.00 | 0.00 | 0.00 | 61 | 1021.5 |
| 20260509213005 | 54 | 242 | 1.7 | 3.5 | 0.00 | 0.00 | 0.00 | 61 | 1021.4 |
| 20260509212004 | 54 | 248 | 1.7 | 4.3 | 0.00 | 0.00 | 0.00 | 60 | 1021.5 |
| 20260509211004 | 54 | 234 | 1.7 | 3.5 | 0.00 | 0.00 | 0.00 | 60 | 1021.3 |
| 20260509210004 | 55 | 248 | 1.7 | 3.5 | 0.00 | 0.00 | 0.00 | 59 | 1021.4 |
| 20260509205004 | 55 | 230 | 1.7 | 4.3 | 0.00 | 0.00 | 0.00 | 57 | 1021.2 |
| 20260509204003 | 55 | 225 | 1.7 | 6.1 | 0.00 | 0.00 | 0.00 | 56 | 1021.1 |
| 20260509203004 | 55 | 227 | 2.6 | 7.0 | 0.00 | 0.00 | 0.00 | 56 | 1020.9 |
| 20260509202004 | 55 | 244 | 3.5 | 6.1 | 0.00 | 0.00 | 0.00 | 57 | 1020.7 |
| 20260509201003 | 55 | 233 | 1.7 | 4.3 | 0.00 | 0.00 | 0.00 | 57 | 1020.9 |
| 20260509200004 | 55 | 237 | 1.7 | 4.3 | 0.00 | 0.00 | 0.00 | 56 | 1020.8 |
| 20260509195004 | 55 | 236 | 2.6 | 6.1 | 0.00 | 0.00 | 0.00 | 56 | 1020.6 |
| 20260509194005 | 55 | 255 | 2.6 | 5.2 | 0.00 | 0.00 | 0.00 | 56 | 1020.8 |
| 20260509193005 | 55 | 244 | 1.7 | 3.5 | 0.00 | 0.00 | 0.00 | 56 | 1020.8 |
| 20260509192006 | 55 | 270 | 1.7 | 5.2 | 0.00 | 0.00 | 0.00 | 56 | 1020.6 |
| 20260509191005 | 55 | 244 | 1.7 | 3.5 | 0.00 | 0.00 | 0.00 | 56 | 1020.7 |
| 20260509190006 | 55 | 247 | 1.7 | 5.2 | 0.00 | 0.00 | 0.00 | 55 | 1020.7 |
| 20260509185006 | 55 | 246 | 1.7 | 4.3 | 0.00 | 0.00 | 0.00 | 55 | 1020.8 |
| 20260509184005 | 55 | 249 | 1.7 | 3.5 | 0.00 | 0.00 | 0.00 | 54 | 1020.7 |
| 20260509183005 | 56 | 263 | 1.7 | 5.2 | 0.00 | 0.00 | 0.00 | 54 | 1020.9 |
| 20260509182005 | 56 | 259 | 2.6 | 5.2 | 0.00 | 0.00 | 0.00 | 53 | 1020.7 |
| 20260509181005 | 56 | 245 | 1.7 | 5.2 | 0.00 | 0.00 | 0.00 | 52 | 1020.7 |
| 20260509180006 | 56 | 234 | 1.7 | 6.1 | 0.00 | 0.00 | 0.00 | 52 | 1020.6 |
| 20260509175005 | 56 | 234 | 2.6 | 5.2 | 0.00 | 0.00 | 0.00 | 50 | 1020.9 |
| 20260509174005 | 57 | 245 | 1.7 | 7.0 | 0.00 | 0.00 | 0.00 | 49 | 1020.9 |
| 20260509173005 | 57 | 274 | 3.5 | 7.8 | 0.00 | 0.00 | 0.00 | 48 | 1021.0 |
| 20260509172005 | 57 | 260 | 2.6 | 7.0 | 0.00 | 0.00 | 0.00 | 48 | 1020.9 |
| 20260509171005 | 57 | 270 | 5.2 | 7.0 | 0.00 | 0.00 | 0.00 | 48 | 1020.9 |
| 20260509170005 | 57 | 271 | 1.7 | 5.2 | 0.00 | 0.00 | 0.00 | 47 | 1021.0 |
| 20260509165005 | 57 | 273 | 1.7 | 5.2 | 0.00 | 0.00 | 0.00 | 47 | 1020.9 |
| 20260509164005 | 57 | 268 | 1.7 | 5.2 | 0.00 | 0.00 | 0.00 | 47 | 1021.1 |
| 20260509163005 | 57 | 257 | 1.7 | 5.2 | 0.00 | 0.00 | 0.00 | 47 | 1021.0 |
| 20260509162005 | 57 | 265 | 1.7 | 4.3 | 0.00 | 0.00 | 0.00 | 46 | 1021.0 |
| 20260509161005 | 58 | 265 | 1.7 | 3.5 | 0.00 | 0.00 | 0.00 | 45 | 1021.1 |
| 20260509160006 | 58 | 270 | 1.7 | 4.3 | 0.00 | 0.00 | 0.00 | 44 | 1021.1 |
| 20260509155005 | 59 | 254 | 1.7 | 6.1 | 0.00 | 0.00 | 0.00 | 43 | 1021.2 |
| 20260509154005 | 59 | 248 | 3.5 | 5.2 | 0.00 | 0.00 | 0.00 | 42 | 1021.2 |
| 20260509153005 | 59 | 232 | 2.6 | 5.2 | 0.00 | 0.00 | 0.00 | 42 | 1021.2 |
| 20260509152005 | 58 | 259 | 1.7 | 3.5 | 0.00 | 0.00 | 0.00 | 44 | 1021.3 |
| 20260509151005 | 58 | 270 | 0.9 | 1.7 | 0.00 | 0.00 | 0.00 | 45 | 1021.4 |
| 20260509150005 | 57 | 275 | 0.9 | 1.7 | 0.00 | 0.00 | 0.00 | 45 | 1021.5 |
| 20260509145005 | 58 | 267 | 0.9 | 1.7 | 0.00 | 0.00 | 0.00 | 45 | 1021.4 |
| 20260509144006 | 57 | 274 | 0.0 | 1.7 | 0.00 | 0.00 | 0.00 | 44 | 1021.5 |
| 20260509143005 | 58 | 279 | 0.0 | 1.7 | 0.00 | 0.00 | 0.00 | 44 | 1021.5 |
| 20260509142005 | 58 | 270 | 0.9 | 2.6 | 0.00 | 0.00 | 0.00 | 42 | 1021.6 |
| 20260509141005 | 59 | 277 | 0.9 | 3.5 | 0.00 | 0.00 | 0.00 | 42 | 1021.6 |
| 20260509140006 | 59 | 270 | 1.7 | 3.5 | 0.00 | 0.00 | 0.00 | 41 | 1021.5 |
| 20260509135005 | 60 | 251 | 1.7 | 4.3 | 0.00 | 0.00 | 0.00 | 40 | 1021.4 |
| 20260509134005 | 59 | 257 | 1.7 | 2.6 | 0.00 | 0.00 | 0.00 | 41 | 1021.5 |
| 20260509133005 | 59 | 255 | 0.9 | 1.7 | 0.00 | 0.00 | 0.00 | 41 | 1021.3 |
| 20260509132005 | 59 | 253 | 0.9 | 3.5 | 0.00 | 0.00 | 0.00 | 41 | 1021.4 |
| 20260509131005 | 59 | 252 | 0.9 | 1.7 | 0.00 | 0.00 | 0.00 | 41 | 1021.3 |
| 20260509130005 | 59 | 269 | 0.9 | 1.7 | 0.00 | 0.00 | 0.00 | 40 | 1021.3 |
| 20260509125005 | 60 | 260 | 0.9 | 7.0 | 0.00 | 0.00 | 0.00 | 39 | 1021.1 |
| 20260509124005 | 61 | 277 | 1.7 | 3.5 | 0.00 | 0.00 | 0.00 | 38 | 1021.2 |
| 20260509123005 | 61 | 273 | 1.7 | 3.5 | 0.00 | 0.00 | 0.00 | 36 | 1021.1 |
| 20260509122005 | 62 | 277 | 1.7 | 5.2 | 0.00 | 0.00 | 0.00 | 36 | 1021.1 |
| 20260509121005 | 62 | 281 | 1.7 | 5.2 | 0.00 | 0.00 | 0.00 | 36 | 1021.0 |
| 20260509120005 | 62 | 271 | 1.7 | 5.2 | 0.00 | 0.00 | 0.00 | 35 | 1020.9 |
| 20260509115005 | 62 | 270 | 1.7 | 5.2 | 0.00 | 0.00 | 0.00 | 35 | 1020.9 |
| 20260509114004 | 63 | 259 | 1.7 | 4.3 | 0.00 | 0.00 | 0.00 | 35 | 1020.8 |
| 20260509113005 | 63 | 288 | 1.7 | 6.1 | 0.00 | 0.00 | 0.00 | 35 | 1020.7 |
| 20260509112005 | 64 | 277 | 1.7 | 3.5 | 0.00 | 0.00 | 0.00 | 33 | 1020.7 |
| 20260509111005 | 64 | 287 | 1.7 | 3.5 | 0.00 | 0.00 | 0.00 | 32 | 1020.5 |
| 20260509110005 | 65 | 295 | 1.7 | 3.5 | 0.00 | 0.00 | 0.00 | 31 | 1020.6 |
| 20260509105005 | 65 | 295 | 1.7 | 3.5 | 0.00 | 0.00 | 0.00 | 30 | 1020.5 |
| 20260509104005 | 66 | 276 | 1.7 | 4.3 | 0.00 | 0.00 | 0.00 | 29 | 1020.5 |
| 20260509103005 | 66 | 298 | 1.7 | 4.3 | 0.00 | 0.00 | 0.00 | 29 | 1020.4 |
| 20260509102004 | 67 | 288 | 1.7 | 4.3 | 0.00 | 0.00 | 0.00 | 27 | 1020.6 |
| 20260509101005 | 68 | 293 | 1.7 | 3.5 | 0.00 | 0.00 | 0.00 | 26 | 1020.4 |
| 20260509100005 | 68 | 275 | 1.7 | 4.3 | 0.00 | 0.00 | 0.00 | 24 | 1020.4 |
| 20260509095005 | 69 | 287 | 2.6 | 4.3 | 0.00 | 0.00 | 0.00 | 24 | 1020.3 |
| 20260509094004 | 69 | 282 | 1.7 | 2.6 | 0.00 | 0.00 | 0.00 | 24 | 1020.3 |
| 20260509093005 | 70 | 274 | 1.7 | 3.5 | 0.00 | 0.00 | 0.00 | 23 | 1020.1 |
| 20260509092005 | 71 | 276 | 1.7 | 6.1 | 0.00 | 0.00 | 0.00 | 21 | 1020.2 |
| 20260509091005 | 68 | 284 | 2.6 | 7.0 | 0.00 | 0.00 | 0.00 | 20 | 1020.1 |
| 20260509090005 | 74 | 274 | 1.7 | 6.1 | 0.00 | 0.00 | 0.00 | 17 | 1020.0 |
| 20260509085005 | 80 | 257 | 2.6 | 6.1 | 0.00 | 0.00 | 0.00 | 16 | 1020.1 |
| 20260509084004 | 76 | 246 | 1.7 | 6.1 | 0.00 | 0.00 | 0.00 | 15 | 1020.2 |
| 20260509083005 | 76 | 272 | 1.7 | 7.0 | 0.00 | 0.00 | 0.00 | 11 | 1020.2 |
| 20260509082005 | 59 | 241 | 2.6 | 6.1 | 0.00 | 0.00 | 0.00 | 12 | 1020.1 |
| 20260509081004 | 76 | 281 | 1.7 | 9.6 | 0.00 | 0.00 | 0.00 | 12 | 1020.2 |
| 20260509080005 | 77 | 282 | 4.3 | 7.8 | 0.00 | 0.00 | 0.00 | 15 | 1020.2 |
| 20260509075004 | 77 | 269 | 3.5 | 7.0 | 0.00 | 0.00 | 0.00 | 16 | 1020.1 |
| 20260509074005 | 78 | 226 | 3.5 | 5.2 | 0.00 | 0.00 | 0.00 | 14 | 1020.1 |
| 20260509073005 | 77 | 212 | 1.7 | 8.7 | 0.00 | 0.00 | 0.00 | 15 | 1020.0 |
| 20260509072005 | 77 | 231 | 1.7 | 7.0 | 0.00 | 0.00 | 0.00 | 14 | 1019.9 |
| 20260509071004 | 76 | 260 | 3.5 | 9.6 | 0.00 | 0.00 | 0.00 | 14 | 1019.8 |
| 20260509070005 | 75 | 247 | 2.6 | 9.6 | 0.00 | 0.00 | 0.00 | 17 | 1019.8 |
| 20260509065005 | 76 | 271 | 5.2 | 9.6 | 0.00 | 0.00 | 0.00 | 18 | 1019.8 |
| 20260509064005 | 76 | 261 | 2.6 | 13.0 | 0.00 | 0.00 | 0.00 | 19 | 1019.5 |
| 20260509063004 | 75 | 253 | 3.5 | 9.6 | 0.00 | 0.00 | 0.00 | 20 | 1019.7 |
| 20260509062005 | 75 | 276 | 5.2 | 10.4 | 0.00 | 0.00 | 0.00 | 20 | 1019.8 |
| 20260509061004 | 75 | 265 | 5.2 | 9.6 | 0.00 | 0.00 | 0.00 | 22 | 1019.7 |
| 20260509060004 | 74 | 242 | 3.5 | 13.0 | 0.00 | 0.00 | 0.00 | 23 | 1019.7 |
| 20260509055004 | 74 | 257 | 7.0 | 13.0 | 0.00 | 0.00 | 0.00 | 22 | 1019.7 |
| 20260509054004 | 74 | 240 | 7.0 | 13.9 | 0.00 | 0.00 | 0.00 | 22 | 1019.9 |
| 20260509053005 | 74 | 269 | 3.5 | 9.6 | 0.00 | 0.00 | 0.00 | 24 | 1020.0 |
| 20260509052004 | 74 | 285 | 6.1 | 11.3 | 0.00 | 0.00 | 0.00 | 24 | 1020.1 |
| 20260509051004 | 74 | 262 | 6.1 | 9.6 | 0.00 | 0.00 | 0.00 | 26 | 1020.4 |
| 20260509050004 | 73 | 270 | 7.8 | 11.3 | 0.00 | 0.00 | 0.00 | 28 | 1020.4 |